KLVKKHWD

Guest
Details From KLVK - Livermore Muni
To KHWD - Hayward Executive
Flight Number -
Tags Generated
Created
Modified
Stats Distance 14 nm / 27 km
Max Altitude 0 ft / 0 m
Waypoints 2
Social Downloads 0
Likes 0
Share VATSIM

Download

Looking for another format? Having issues loading an existing format? Contact us
Advertisement - Login to hide

Notes

Generated

Route

KLVK KHWD

ID Type Via Altitude Latitude Longitude Leg Dist Tot Dist Heading (true) Name
O KLVK APT - 0 ft / 0 m 37.69253˚ -121.82509˚ - 0 nm - -
O KHWD APT - 0 ft / 0 m 37.66248˚ -122.12726˚ 14 nm 14 nm 263° / 263° -

Altitude Profile

Advertisement - Login to hide

KLVK

Details ICAO KLVK (LVK)
Name Livermore Muni
Region United States
Timezone America/Los_Angeles (UTC-7.0)
Stats Elevation 400 ft / 122 m (AMSL)
Location 37.693179° -121.820375°
Runways 2
Magnetic Variation 13.351° E

METAR

KLVK 242153Z 30012KT 10SM SCT095 18/12 A3002 RMK AO2 SLP165 T01830117

Decode

TAF

TAF AMD KLVK 242111Z 2421/2518 27012KT P6SM SCT028 BKN090 FM250300 26010KT P6SM SCT035 BKN060 FM250700 25008KT P6SM VCSH BKN030 BKN060 FM251300 24008KT P6SM VCSH OVC030

Decode

Departure Runways

ID Width Length Bearing (true) Bearing (mag) Surface Threshold Offset Overrun Length
07L 98 ft / 30 m 5,241 ft / 1,598 m 90.57° 77.22° Asphalt 0 ft / 0 m 151 ft / 46 m
07R 75 ft / 23 m 2,694 ft / 821 m 90.58° 77.23° Asphalt 0 ft / 0 m 0 ft / 0 m
25L 75 ft / 23 m 2,694 ft / 821 m 270.59° 257.24° Asphalt 0 ft / 0 m 0 ft / 0 m
25R 98 ft / 30 m 5,241 ft / 1,598 m 270.58° 257.23° Asphalt 0 ft / 0 m 151 ft / 46 m

KHWD

Details ICAO KHWD (HWD)
Name Hayward Executive
Region United States
Timezone America/Los_Angeles (UTC-7.0)
Stats Elevation 52 ft / 16 m (AMSL)
Location 37.659252° -122.121935°
Runways 2
Magnetic Variation 13.391° E

METAR

KHWD 242154Z 29011KT 10SM OVC029 17/09 A3006 RMK AO2 SLP188 T01670089

Decode

TAF

Not found

Destination Runways

ID Width Length Bearing (true) Bearing (mag) Surface Threshold Offset Overrun Length
10L 75 ft / 23 m 3,104 ft / 946 m 119.95° 106.56° Asphalt 0 ft / 0 m 0 ft / 0 m
10R 151 ft / 46 m 5,688 ft / 1,734 m 119.95° 106.56° Asphalt 817 ft / 249 m 0 ft / 0 m
28L 151 ft / 46 m 5,688 ft / 1,734 m 299.96° 286.57° Asphalt 676 ft / 206 m 0 ft / 0 m
28R 75 ft / 23 m 3,104 ft / 946 m 299.96° 286.57° Asphalt 0 ft / 0 m 0 ft / 0 m

Approach Navaids

Runway Type Ident Frequency Range Bearing (true) Bearing (mag) Slope Elevation
28L Localiser IHWD 111.50 MHz 18 nm / 33 km 302.00° 288.61° - 27 ft / 8 m (AMSL)
28L DME IHWD 111.50 MHz 18 nm / 33 km - - - 42 ft / 13 m (AMSL)

Popular Alternatives